PulseSat

PulseSat

COSMOS 2459 (731)

Last updated on March 21, 2019, 3:13 a.m. UTC

1 36400U 10007A   19078.64767088 -.00000037  00000-0  10000-3 0  9997
2 36400  65.7219  43.1580 0028094 346.8304 138.2733  2.13102268 70422
UTC
Height (km)
Latitude
Longitude
Inclination
Orbital Period

Next 30 passes for location: Hong Kong

Rise time Rise Azimuth (degrees) Set time Set Azimuth (degrees) Duration Max altitude (degrees)

No matching passes for this satellites

PulseSat

PulseSat is the new satellites software and hardware trackering solution by Pulsely.
Satellite Two Line Element Set source: US Air Force Space Command

Download PulseSat for iOS
© 2017 Pulsely Limited